Flag Weather past 2 weeks in Valladolid, Spain

Now
48 °F

Clear.


Feels Like: 45 °F
Forecast: 45 / 60 °F
Wind: 8 mph from Northeast

Location: Valladolid / Villanubla

Current Time: Nov 23, 2014 at 11:40:55 PM

Latest Report: Nov 23, 2014 at 9:30 PM


Visibility: 10 mi

Pressure: 29.98 "Hg

Humidity: 100%

Dew point: 48 °F

Location of ValladolidLocation

Historic Weather in Valladolid — Graph

°F

Valladolid temperature yesterday

Maximum temperature yesterday: 64 °F (at 1:30 PM)
Minimum temperature yesterday: 43 °F (at 8:30 AM)
Average temperature yesterday: 56 °F

Past Weeks' High & Low Weather Summary

 TemperatureHumidityPressure
High64 °F (Nov 22, 1:30 PM)100% (Nov 9, 7:00 AM)30.07 "Hg (Nov 9, 7:00 AM)
Low30 °F (Nov 10, 8:00 AM)62% (Nov 9, 1:30 PM)29.50 "Hg (Nov 11, 7:30 AM)
Average48 °F88%29.86 "Hg
* Reported Nov 8 9:00 PM — Nov 23 9:30 PM, Valladolid, Weather by CustomWeather, © 2014

Note: Actual official high and low records may vary slightly from our data, if they occured in-between our weather recording intervals... More about our weather records

Advertising

Valladolid weather history for previous 24 hours

 ConditionsComfort  
Time TempWeatherWind HumidityBarometerVisibility
9:30 PM
Nov 23
48 °FClear.8 mph100%29.98 "Hg10 mi
9:00 PM46 °FClear.7 mph100%29.98 "Hg10 mi
8:30 PM50 °FClear.5 mph100%29.98 "Hg10 mi
8:00 PM50 °FClear.6 mph100%29.98 "Hg10 mi
7:30 PM50 °FClear.3 mph100%29.98 "Hg10 mi
7:00 PM52 °FClear.3 mph94%29.95 "Hg10 mi
6:30 PM52 °FPassing clouds.5 mph100%29.95 "Hg6 mi
6:00 PM54 °FPassing clouds.5 mph94%29.95 "HgN/A
5:30 PM54 °FPassing clouds.3 mph100%29.92 "HgN/A
5:00 PM54 °FScattered clouds.5 mph100%29.92 "HgN/A
4:30 PM54 °FScattered clouds.8 mph100%29.92 "HgN/A
4:00 PM54 °FPartly sunny.5 mph100%29.92 "HgN/A
3:30 PM54 °FPartly sunny.6 mph94%29.92 "HgN/A
3:00 PM54 °FLight rain. Broken clouds.3 mph100%29.92 "Hg6 mi
2:30 PM54 °FLight rain. Partly sunny.2 mph100%29.92 "Hg6 mi
2:00 PM54 °FRain. Partly sunny.3 mph94%29.92 "Hg4 mi
1:30 PM54 °FScattered clouds.7 mph94%29.92 "HgN/A
1:00 PM54 °FBroken clouds.6 mph94%29.92 "HgN/A
12:30 PM54 °FLight rain. Partly sunny.9 mph94%29.92 "HgN/A
12:00 PM52 °FRain. Broken clouds.8 mph100%29.92 "Hg6 mi
11:30 AM52 °FLight rain. Broken clouds.9 mph100%29.92 "HgN/A
11:00 AM54 °FRain. Scattered clouds.9 mph88%29.89 "HgN/A
10:30 AM54 °FLight rain. Scattered clouds.9 mph88%29.89 "HgN/A
10:00 AM54 °FScattered clouds.2 mph88%29.89 "HgN/A
9:30 AM54 °FScattered clouds.3 mph82%29.89 "HgN/A
9:00 AM54 °FScattered clouds.8 mph82%29.86 "HgN/A
8:30 AM54 °FLight rain. Scattered clouds.7 mph82%29.86 "Hg6 mi
7:30 AM54 °FClear.10 mph82%29.86 "Hg10 mi
7:00 AM54 °FClear.9 mph82%29.83 "Hg10 mi
Weather by CustomWeather, © 2014

See weather overviewHow to use our weather pages